This is the latest recevied weather packets stored in our database for station/object WX7FGZ-5. If no packets are shown the sender has not sent any weather packets the latest 10 day(s).
| Time | Temp. | Humidity | Pressure | Rain* | Wind** | Luminosity | Snow |
|---|---|---|---|---|---|---|---|
| 1777870545 | 12.22° C | 34% | 1020.6 hPa | 0 mm | - | 0 W/m² | - |
| 1777870510 | 12.22° C | 34% | 1020.6 hPa | 0 mm | - | 0 W/m² | - |
| 1777870282 | 12.22° C | 33% | 1020.6 hPa | 0 mm | - | 0 W/m² | - |
| 1777869911 | 12.22° C | 33% | 1020.6 hPa | 0 mm | - | 0 W/m² | - |
| 1777869829 | 12.22° C | 33% | 1020.7 hPa | 0 mm | - | 0 W/m² | - |
| 1777869611 | 12.22° C | 33% | 1020.7 hPa | 0 mm | - | 0 W/m² | - |
| 1777869597 | 11.67° C | 34% | 1020.4 hPa | 0 mm | - | 0 W/m² | - |
| 1777869310 | 11.67° C | 34% | 1020.4 hPa | 0 mm | - | 0 W/m² | - |
| 1777869018 | 11.67° C | 34% | 1020.6 hPa | 0 mm | - | 0 W/m² | - |
| 1777869011 | 11.67° C | 34% | 1020.5 hPa | 0 mm | - | 0 W/m² | - |
| 1777868713 | 12.22° C | 34% | 1020.6 hPa | 0 mm | - | 0 W/m² | - |
| 1777868712 | 11.67° C | 34% | 1020.6 hPa | 0 mm | - | 0 W/m² | - |
| 1777868410 | 12.22° C | 34% | 1020.6 hPa | 0 mm | - | 0 W/m² | - |
| 1777868191 | 12.22° C | 34% | 1020.5 hPa | 0 mm | - | 0 W/m² | - |
| 1777867810 | 12.22° C | 34% | 1020.5 hPa | 0 mm | - | 0 W/m² | - |
| 1777867513 | 12.22° C | 34% | 1020.4 hPa | 0 mm | - | 0 W/m² | - |
| 1777866618 | 12.78° C | 34% | 1020.3 hPa | 0 mm | - | 0 W/m² | - |
| 1777866318 | 12.78° C | 34% | 1020.4 hPa | 0 mm | - | 0 W/m² | - |
| 1777866018 | 12.78° C | 34% | 1020.2 hPa | 0 mm | - | 0 W/m² | - |
| 1777865057 | 13.33° C | 34% | 1020 hPa | 0 mm | - | 0 W/m² | - |
| 1777864818 | 13.33° C | 34% | 1020 hPa | 0 mm | - | 0 W/m² | - |
| 1777864570 | 13.89° C | 34% | 1019.8 hPa | 0 mm | - | 0 W/m² | - |
| 1777864518 | 13.33° C | 34% | 1019.8 hPa | 0 mm | - | 0 W/m² | - |
| 1777864218 | 13.89° C | 34% | 1019.8 hPa | 0 mm | - | 0 W/m² | - |
| 1777863918 | 13.89° C | 34% | 1019.7 hPa | 0 mm | - | 0 W/m² | - |
* Rain latest hour (hover to see other rain measurements)
** Current wind speed in m/s (hover to see current wind gust speed)